DLH250 EDDN-LOWW

Flight info

Callsign DLH250
Flight time 0h 40m
Altitude 29000
Route RODIS1G/28 RODIS L604 LAMSI DCT VENEN VENEN3W
Aircraft A319/M-SDE3FGHIRWY/LB1

Departure

Time 2026-05-04 11:44
Airport Nuremberg Airport (EDDN)

Arrival

Time 2026-05-04 12:25
Airport Vienna International Airport (LOWW)
Time Latitude Longitude Altitude Speed Heading
2026-05-04 11:44 49.66023 10.93503 10625 ft 339 kts 24°
2026-05-04 11:44 49.67984 10.95642 11150 ft 353 kts 47°
2026-05-04 11:45 49.69301 10.98849 11864 ft 358 kts 71°
2026-05-04 11:45 49.69707 11.02615 12666 ft 359 kts 93°
2026-05-04 11:45 49.69551 11.06473 13483 ft 362 kts 96°
2026-05-04 11:45 49.69355 11.10322 14175 ft 366 kts 97°
2026-05-04 11:46 49.69143 11.14257 14858 ft 370 kts 97°
2026-05-04 11:46 49.68867 11.18221 15530 ft 373 kts 103°
2026-05-04 11:46 49.68172 11.22084 16207 ft 374 kts 113°
2026-05-04 11:46 49.67037 11.25704 16879 ft 376 kts 122°
2026-05-04 11:47 49.65765 11.29248 17541 ft 380 kts 122°
2026-05-04 11:47 49.64480 11.32839 18210 ft 384 kts 121°
2026-05-04 11:47 49.63185 11.36460 18800 ft 388 kts 121°
2026-05-04 11:47 49.61877 11.40120 19393 ft 391 kts 121°
2026-05-04 11:48 49.60554 11.43811 19992 ft 394 kts 121°
2026-05-04 11:48 49.59216 11.47521 20596 ft 398 kts 122°
2026-05-04 11:48 49.57868 11.51258 21201 ft 401 kts 122°
2026-05-04 11:48 49.56579 11.55088 21808 ft 406 kts 115°
2026-05-04 11:49 49.55607 11.59194 22385 ft 410 kts 111°
2026-05-04 11:49 49.54665 11.63372 22959 ft 413 kts 111°
2026-05-04 11:49 49.53716 11.67559 23517 ft 416 kts 111°
2026-05-04 11:49 49.52755 11.71782 24003 ft 419 kts 111°
2026-05-04 11:50 49.51800 11.75968 24454 ft 422 kts 111°
2026-05-04 11:50 49.50824 11.80237 24882 ft 424 kts 111°
2026-05-04 11:50 49.49838 11.84538 25297 ft 427 kts 111°
2026-05-04 11:50 49.48842 11.88865 25714 ft 431 kts 111°
2026-05-04 11:51 49.47838 11.93218 26119 ft 434 kts 112°
2026-05-04 11:51 49.46823 11.97609 26517 ft 437 kts 112°
2026-05-04 11:51 49.45803 12.02016 26909 ft 440 kts 112°
2026-05-04 11:51 49.44772 12.06468 27295 ft 443 kts 112°
2026-05-04 11:52 49.43735 12.10949 27693 ft 446 kts 112°
2026-05-04 11:52 49.42689 12.15451 28063 ft 449 kts 112°
2026-05-04 11:52 49.41630 12.19989 28448 ft 452 kts 112°
2026-05-04 11:52 49.40565 12.24547 28828 ft 455 kts 112°
2026-05-04 11:53 49.39490 12.29133 28989 ft 455 kts 112°
2026-05-04 11:53 49.38431 12.33633 29011 ft 443 kts 112°
2026-05-04 11:53 49.37389 12.38053 29015 ft 439 kts 112°
2026-05-04 11:53 49.36348 12.42444 29013 ft 450 kts 112°
2026-05-04 11:55 49.22867 12.70767 29006 ft 491 kts 137°
2026-05-04 11:56 49.18069 12.78205 29005 ft 491 kts 137°
2026-05-04 11:56 49.13287 12.85592 29001 ft 492 kts 137°
2026-05-04 11:57 49.08471 12.93008 28999 ft 492 kts 137°
2026-05-04 11:57 49.03640 13.00406 28988 ft 491 kts 137°
2026-05-04 11:58 48.98818 13.07758 28985 ft 491 kts 137°
2026-05-04 11:58 48.93980 13.15135 28979 ft 491 kts 137°
2026-05-04 11:59 48.89181 13.22433 28975 ft 491 kts 137°
2026-05-04 11:59 48.84343 13.29765 28973 ft 491 kts 137°
2026-05-04 12:00 48.79484 13.37100 28978 ft 491 kts 137°
2026-05-04 12:00 48.74626 13.44403 28975 ft 492 kts 137°
2026-05-04 12:01 48.69759 13.51693 28974 ft 492 kts 137°
2026-05-04 12:01 48.67524 13.55626 28973 ft 494 kts 126°
2026-05-04 12:02 48.62933 13.85874 28980 ft 500 kts 98°
2026-05-04 12:03 48.61994 13.96279 28984 ft 500 kts 98°
2026-05-04 12:03 48.61058 14.06698 28987 ft 500 kts 98°
2026-05-04 12:04 48.60121 14.17015 28994 ft 478 kts 98°
2026-05-04 12:04 48.59681 14.21842 28995 ft 451 kts 98°
2026-05-04 12:04 48.59254 14.26471 29000 ft 442 kts 98°
2026-05-04 12:05 48.58403 14.35625 28998 ft 438 kts 98°
2026-05-04 12:05 48.57543 14.44731 28990 ft 442 kts 98°
2026-05-04 12:06 48.57103 14.49369 28099 ft 452 kts 98°
2026-05-04 12:06 48.56657 14.54091 27374 ft 451 kts 98°
2026-05-04 12:06 48.56300 14.58741 26906 ft 443 kts 96°
2026-05-04 12:06 48.56050 14.63358 26338 ft 439 kts 94°
2026-05-04 12:07 48.55865 14.67937 25782 ft 434 kts 94°
2026-05-04 12:07 48.55699 14.72464 25261 ft 429 kts 94°
2026-05-04 12:07 48.55526 14.76933 24737 ft 425 kts 94°
2026-05-04 12:07 48.55336 14.81354 24242 ft 420 kts 94°
2026-05-04 12:08 48.55133 14.85688 23755 ft 417 kts 95°
2026-05-04 12:08 48.54912 14.90033 23238 ft 413 kts 95°
2026-05-04 12:08 48.54684 14.94331 22770 ft 409 kts 95°
2026-05-04 12:08 48.54454 14.98588 22315 ft 405 kts 95°
2026-05-04 12:09 48.54228 15.02809 21861 ft 402 kts 95°
2026-05-04 12:09 48.54004 15.06997 21393 ft 399 kts 96°
2026-05-04 12:09 48.53785 15.11157 20932 ft 397 kts 96°
2026-05-04 12:09 48.53565 15.15290 20454 ft 394 kts 96°
2026-05-04 12:10 48.53345 15.19411 19977 ft 393 kts 96°
2026-05-04 12:10 48.53127 15.23510 19489 ft 391 kts 96°
2026-05-04 12:10 48.52907 15.27591 18991 ft 390 kts 96°
2026-05-04 12:10 48.52686 15.31668 18502 ft 389 kts 97°
2026-05-04 12:11 48.52465 15.35727 17970 ft 388 kts 97°
2026-05-04 12:11 48.52242 15.39762 17475 ft 385 kts 97°
2026-05-04 12:11 48.52018 15.43779 16989 ft 382 kts 97°
2026-05-04 12:11 48.51796 15.47753 16511 ft 379 kts 97°
2026-05-04 12:12 48.51578 15.51697 16035 ft 377 kts 97°
2026-05-04 12:12 48.51360 15.55628 15559 ft 375 kts 97°
2026-05-04 12:12 48.51139 15.59546 15089 ft 373 kts 97°
2026-05-04 12:12 48.50922 15.63380 14629 ft 371 kts 97°
2026-05-04 12:13 48.50702 15.67256 14161 ft 369 kts 97°
2026-05-04 12:14 48.49156 15.93462 10956 ft 347 kts 97°
2026-05-04 12:15 48.48938 15.97071 10524 ft 344 kts 97°
2026-05-04 12:15 48.48721 16.00631 10303 ft 335 kts 97°
2026-05-04 12:15 48.48512 16.04074 10176 ft 323 kts 98°
2026-05-04 12:15 48.48310 16.07402 10058 ft 314 kts 98°
2026-05-04 12:16 48.47909 16.10569 9921 ft 303 kts 111°
2026-05-04 12:16 48.47118 16.13456 9508 ft 296 kts 117°
2026-05-04 12:16 48.46289 16.16242 8901 ft 295 kts 117°
2026-05-04 12:16 48.45454 16.19045 8365 ft 292 kts 117°
2026-05-04 12:17 48.44625 16.21826 7816 ft 289 kts 117°
2026-05-04 12:17 48.43805 16.24590 7298 ft 286 kts 116°
2026-05-04 12:17 48.42997 16.27318 6791 ft 284 kts 116°
2026-05-04 12:17 48.42196 16.30021 6298 ft 279 kts 116°
2026-05-04 12:18 48.41436 16.32591 6187 ft 257 kts 117°
2026-05-04 12:18 48.40740 16.34947 6090 ft 237 kts 117°
2026-05-04 12:18 48.40067 16.37201 5995 ft 240 kts 117°
2026-05-04 12:18 48.39370 16.39506 5888 ft 244 kts 117°
2026-05-04 12:19 48.38673 16.41823 5773 ft 241 kts 117°
2026-05-04 12:19 48.37982 16.44127 5676 ft 243 kts 117°
2026-05-04 12:19 48.37160 16.46273 5562 ft 237 kts 135°
2026-05-04 12:19 48.35856 16.47647 5368 ft 227 kts 161°
2026-05-04 12:20 48.34348 16.48316 5097 ft 225 kts 166°
2026-05-04 12:20 48.32842 16.48950 4817 ft 224 kts 166°
2026-05-04 12:20 48.31338 16.49588 4503 ft 225 kts 166°
2026-05-04 12:20 48.29824 16.50232 4199 ft 226 kts 165°
2026-05-04 12:21 48.28305 16.50879 3892 ft 228 kts 164°
2026-05-04 12:21 48.26780 16.51529 3600 ft 228 kts 164°
2026-05-04 12:21 48.25253 16.52178 3298 ft 227 kts 164°
2026-05-04 12:21 48.23740 16.52823 3009 ft 226 kts 164°
2026-05-04 12:22 48.22254 16.53455 2737 ft 215 kts 164°
2026-05-04 12:22 48.20891 16.54035 2453 ft 188 kts 165°
2026-05-04 12:22 48.19730 16.54529 2226 ft 163 kts 165°
2026-05-04 12:22 48.18683 16.54973 2014 ft 149 kts 165°
2026-05-04 12:23 48.17712 16.55385 1812 ft 139 kts 165°
2026-05-04 12:23 48.16829 16.55760 1645 ft 127 kts 165°
2026-05-04 12:23 48.15993 16.56115 1474 ft 123 kts 165°
2026-05-04 12:23 48.15172 16.56462 1311 ft 122 kts 164°
2026-05-04 12:24 48.14636 16.56690 1200 ft 120 kts 164°
2026-05-04 12:24 48.13838 16.57027 1023 ft 119 kts 163°
2026-05-04 12:24 48.13040 16.57365 852 ft 119 kts 162°
2026-05-04 12:24 48.11978 16.57816 660 ft 119 kts 162°
2026-05-04 12:25 48.11472 16.58032 610 ft 96 kts 163°
2026-05-04 12:25 48.11092 16.58122 613 ft 22 kts 220°
2026-05-04 12:25 48.11069 16.58065 603 ft 0 kts 252°
2026-05-04 12:26 48.11068 16.58060 603 ft 1 kts 255°
2026-05-04 12:26 48.11065 16.58025 603 ft 6 kts 269°
2026-05-04 12:27 48.11080 16.57955 603 ft 9 kts 294°
2026-05-04 12:27 48.11115 16.57847 603 ft 14 kts 297°
2026-05-04 12:27 48.11160 16.57705 616 ft 16 kts 294°
2026-05-04 12:27 48.11216 16.57534 606 ft 21 kts 296°
2026-05-04 12:28 48.11286 16.57322 615 ft 25 kts 296°
2026-05-04 12:28 48.11368 16.57069 608 ft 29 kts 295°
2026-05-04 12:28 48.11430 16.56893 603 ft 17 kts 310°
2026-05-04 12:28 48.11544 16.56917 602 ft 19 kts 11°
2026-05-04 12:29 48.11611 16.56808 601 ft 10 kts 289°
2026-05-04 12:29 48.11650 16.56705 599 ft 10 kts 292°
2026-05-04 12:29 48.11618 16.56647 599 ft 9 kts 201°
2026-05-04 12:29 48.11591 16.56633 600 ft 0 kts 200°